Hundvaag 1 weather for Jun 1997
Month no. 120
Obs.
Da.
Temp. Dew Point Precip. Wind
Speed
Wind gusts Cloud cover Press. Humidity Wind dir. Sunny OPT
01.06.1997 10,5   0,0     10          
02.06.1997 13,0   0,0     10          
03.06.1997 12,2   0,0     0          
04.06.1997 9,6   0,0     0          
05.06.1997 11,1   0,0     3          
06.06.1997 12,0   0,0     10          
07.06.1997 19,8   0,0     0       1  
08.06.1997 21,1   0,0     0       1  
09.06.1997 15,1   0,0     0          
10.06.1997 9,9   8,0     10          
11.06.1997 12,8   0,0     10          
12.06.1997 15,0   0,0     1       1  
13.06.1997 15,9   0,0     0          
14.06.1997 15,1   0,0     0          
15.06.1997 10,0   18,0     0          
16.06.1997 9,3   0,0     10       1  
17.06.1997 9,6   0,0     10       1  
18.06.1997 9,7   0,0     10          
19.06.1997 10,5   0,0     9          
20.06.1997 14,4   0,0     0          
21.06.1997 14,3   0,0     0          
22.06.1997 13,8   12,0     0       1  
23.06.1997 12,3   11,0     0       1  
24.06.1997 10,6   0,0     0       1  
25.06.1997 9,4   0,0     1       1  
26.06.1997 10,4   0,0     7          
27.06.1997 13,3   0,0     10          
28.06.1997 17,7   2,0     7          
29.06.1997 16,4   4,0     6          
30.06.1997 15,0   0,0     0          
                       
Avrg/Sum 13,0   55,0     4,1       9